Flag Weather past 2 weeks in Ontario, California, U.S.A.

Now
62 °F

Clear.


Feels Like: 62 °F
Forecast: 52 / 71 °F
Wind: 3 mph from Northeast

Location: Ontario International Airport

Current Time: Nov 28, 2014 at 9:31:27 PM

Latest Report: Nov 28, 2014 at 8:53 PM


Visibility: 10 mi

Pressure: 29.90 "Hg

Humidity: 37%

Dew point: 35 °F

Location of OntarioLocation

Historic Weather in Ontario — Graph

°F

Ontario temperature yesterday

Maximum temperature yesterday: 87 °F (at 1:53 PM)
Minimum temperature yesterday: 51 °F (at 6:53 AM)
Average temperature yesterday: 68 °F

Past Weeks' High & Low Weather Summary

 TemperatureHumidityPressure
High87 °F (Nov 26, 2:53 PM)93% (Nov 23, 3:53 AM)30.39 "Hg (Nov 23, 3:53 AM)
Low46 °F (Nov 18, 1:53 AM)2% (Nov 16, 1:53 PM)29.86 "Hg (Nov 28, 3:53 PM)
Average63 °F41%30.08 "Hg
* Reported Nov 13 7:53 PM — Nov 28 7:53 PM, Ontario, Weather by CustomWeather, © 2014

Note: Actual official high and low records may vary slightly from our data, if they occured in-between our weather recording intervals... More about our weather records

Advertising

Ontario weather history for previous 24 hours

 ConditionsComfort  
Time TempWeatherWind HumidityBarometerVisibility
7:53 PM
Nov 28
63 °FClear.No wind35%29.89 "Hg10 mi
6:53 PM66 °FClear.5 mph28%29.89 "Hg10 mi
5:53 PM67 °FClear.6 mph27%29.88 "Hg10 mi
4:53 PM74 °FClear.5 mph21%29.87 "Hg10 mi
3:53 PM80 °FSunny.8 mph14%29.86 "Hg10 mi
2:53 PM83 °FSunny.8 mph11%29.87 "Hg10 mi
1:53 PM83 °FSunny.6 mph12%29.88 "Hg10 mi
12:53 PM82 °FSunny.7 mph11%29.90 "Hg10 mi
11:53 AM78 °FPassing clouds.No wind11%29.93 "Hg10 mi
10:53 AM74 °FPassing clouds.No wind14%29.97 "Hg10 mi
9:53 AM70 °FPassing clouds.No wind18%29.99 "Hg10 mi
8:53 AM65 °FPassing clouds.No wind24%30.00 "Hg10 mi
7:53 AM60 °FScattered clouds.3 mph32%29.99 "Hg10 mi
6:53 AM52 °FScattered clouds.3 mph43%29.99 "Hg10 mi
5:53 AM54 °FPassing clouds.3 mph38%29.98 "Hg10 mi
4:53 AM55 °FPassing clouds.3 mph35%29.97 "Hg10 mi
3:53 AM54 °FPassing clouds.No wind38%29.97 "Hg10 mi
2:53 AM53 °FPassing clouds.No wind39%29.97 "Hg10 mi
1:53 AM57 °FPassing clouds.3 mph34%29.98 "Hg10 mi
12:53 AM57 °FPassing clouds.3 mph36%29.98 "Hg10 mi
11:53 PM
Nov 27
61 °FPassing clouds.3 mph30%29.99 "Hg10 mi
10:53 PM60 °FPassing clouds.3 mph32%30.01 "Hg10 mi
9:53 PM63 °FPassing clouds.5 mph29%30.01 "Hg10 mi
Weather by CustomWeather, © 2014

See weather overviewHow to use our weather pages